[[{"header":{"parameterUnit":"m.s-1","parameterCategory":1,"la1":30.2992,"la2":30.254,"lo1":-89.0895,"lo2":-89.0443,"dy":0.0025,"dx":0.0025,"nx":19,"ny":19,"refTime":"2026-05-16T21:00:00:Z","depth":0,"parameterNumber":2,"parameterNumberName":"U-component_of_WINDS"},"data":[0,0,0,-2.6227,-2.623,-2.6342,-2.6343,-2.6503,-2.6504,0,0,0,0,0,0,0,0,0,0,0,-2.6203,-2.6205,-2.6227,-2.623,-2.6342,-2.6343,-2.6503,-2.6504,0,0,0,0,0,0,0,0,0,0,0,-2.6203,-2.6204,-2.6206,-2.6231,-2.6342,-2.6343,-2.6502,-2.6412,0,0,0,0,0,0,0,0,0,0,-2.63,-2.6287,-2.6204,-2.6206,-2.6231,-2.6342,-2.6343,-2.6407,-2.6417,-2.6459,0,-2.6497,0,-2.6503,-2.6516,-2.6517,0,0,0,-2.6224,-2.6278,-2.63,-2.6206,-2.6232,-2.6342,-2.629,-2.6413,-2.6424,-2.6472,-2.6499,-2.6505,-2.6506,-2.6517,-2.6518,-2.6777,-2.6778,0,0,-2.6217,-2.6229,-2.6292,-2.6308,-2.6291,-2.6286,-2.6294,-2.642,-2.645,-2.65,-2.6508,-2.6509,-2.6518,-2.652,-2.6775,-2.6777,0,0,0,-2.6204,-2.6225,-2.6243,-2.6302,-2.6321,-2.629,-2.6298,-2.6444,-2.6449,-2.651,-2.6511,-2.6519,-2.6522,-2.6774,-2.6776,-2.6863,0,0,0,-2.62,-2.6217,-2.6241,-2.6249,-2.6319,-2.6384,-2.632,-2.6441,-2.6454,-2.651,-2.652,-2.6523,-2.6772,-2.6775,-2.6856,-2.6902,0,0,0,-2.6193,-2.6216,-2.6235,-2.6249,-2.6298,-2.6382,-2.6394,-2.6443,-2.6455,-2.6517,-2.6524,-2.6771,-2.6774,-2.6851,-2.6893,-2.6974,0,0,0,-2.6189,-2.6311,-2.6237,-2.6373,-2.6297,-2.6434,-2.6393,-2.6494,-2.6557,-2.652,-2.6772,-2.6776,-2.6849,-2.6888,-2.6968,-2.7044,-2.7077,0,0,-2.6349,-2.633,-2.641,-2.6347,-2.65,-2.6416,-2.6581,-2.6629,-2.6624,-2.6726,-2.6733,-2.6858,-2.6892,-2.6973,-2.7254,-2.728,0,0,0,-2.6464,-2.6522,-2.656,-2.662,-2.6658,-2.6695,-2.6716,-2.6733,-2.6819,-2.6679,-2.6909,-2.6928,-2.6975,-2.7011,-2.7033,-2.7073,-2.6793,-2.6792,-2.6792,-2.6709,-2.6696,-2.6826,-2.6827,-2.6886,-2.6906,-2.6953,-2.698,-2.695,-2.7005,-2.7035,-2.7207,-2.725,-2.7266,-2.7308,-2.7073,-2.7074,-2.7074,-2.7074,-2.6943,-2.7023,-2.6979,-2.709,-2.7077,-2.717,-2.7194,-2.717,-2.7255,-2.7183,-2.7223,-2.7147,-2.7295,-2.7331,-2.7081,-2.708,-2.7079,-2.7078,-2.7078,-2.7103,-2.7138,-2.7157,-2.7242,-2.731,-2.7306,-2.739,-2.7374,-2.736,-2.74,-2.7431,-2.743,-2.7427,-2.7415,-2.7416,-2.7417,-2.7417,-2.7418,-2.7418,-2.7261,-2.7279,-2.7352,-2.7402,-2.7439,-2.7485,-2.7505,-2.7541,-2.7576,-2.7558,-2.7558,-2.7524,-2.7311,-2.7259,-2.7427,-2.7426,-2.7424,-2.7424,-2.7423,-2.7506,-2.7448,-2.756,-2.7596,-2.7654,-2.7723,-2.77,-2.7775,-2.7802,-2.7844,-2.78,-2.7645,-2.7625,-2.7608,-2.7564,-2.7802,-2.7802,-2.7802,-2.7802,-2.7642,-2.7629,-2.774,-2.78,-2.7856,-2.7847,-2.7975,-2.7992,-2.8,-2.8016,-2.7979,-2.792,-2.7902,-2.7893,-2.7869,-2.7829,-2.8128,-2.8128,-2.8129,-2.7792,-2.7784,-2.7896,-2.7903,-2.7946,-2.7985,-2.8105,-2.8175,-2.8173,-2.8142,-2.8029,-2.8015,-2.7919,-2.7888,-2.7856,-2.7819,-2.7744,0,0]},{"header":{"parameterUnit":"m.s-1","parameterCategory":1,"la1":30.2992,"la2":30.254,"lo1":-89.0895,"lo2":-89.0443,"dy":0.0025,"dx":0.0025,"nx":19,"ny":19,"refTime":"2026-05-16T21:00:00:Z","depth":0,"parameterNumber":3,"parameterNumberName":"V-component_of_WINDS"},"data":[0,0,0,4.258,4.2581,4.2632,4.2633,4.271,4.2711,0,0,0,0,0,0,0,0,0,0,0,4.2574,4.2575,4.258,4.2581,4.2632,4.2633,4.271,4.2711,0,0,0,0,0,0,0,0,0,0,0,4.2574,4.2575,4.2576,4.2582,4.2632,4.2633,4.2709,4.2666,0,0,0,0,0,0,0,0,0,0,4.2614,4.2618,4.2574,4.2576,4.2582,4.2632,4.2633,4.2664,4.2669,4.2692,0,4.2717,0,4.2715,4.2717,4.2717,0,0,0,4.2574,4.2614,4.262,4.2576,4.2583,4.2632,4.2607,4.2667,4.2672,4.2699,4.2718,4.2721,4.2717,4.2717,4.2718,4.288,4.2881,0,0,4.2571,4.2588,4.2616,4.2624,4.2619,4.2606,4.2609,4.267,4.2691,4.2718,4.2722,4.2718,4.2718,4.2719,4.2879,4.288,0,0,0,4.2568,4.2586,4.259,4.2621,4.263,4.2607,4.2611,4.2688,4.2688,4.2723,4.2719,4.2718,4.272,4.2878,4.2879,4.2948,0,0,0,4.2566,4.2584,4.2589,4.26,4.2629,4.266,4.2629,4.2684,4.269,4.2718,4.2718,4.272,4.2876,4.2878,4.2944,4.2977,0,0,0,4.2567,4.2584,4.2595,4.26,4.2623,4.2659,4.2662,4.2685,4.2688,4.2717,4.2721,4.2875,4.2878,4.294,4.2971,4.3023,0,0,0,4.2573,4.2656,4.2596,4.2687,4.2623,4.2702,4.2661,4.272,4.2753,4.2719,4.2876,4.2879,4.2938,4.2966,4.3019,4.3068,4.3091,0,0,4.2687,4.2671,4.2723,4.267,4.2765,4.2693,4.2797,4.2811,4.2799,4.2853,4.2857,4.2945,4.297,4.3022,4.3218,4.3236,0,0,0,4.2764,4.2801,4.2823,4.2855,4.2869,4.2882,4.288,4.2885,4.293,4.2831,4.2979,4.2993,4.3023,4.3045,4.3061,4.3084,4.2891,4.2891,4.2891,4.2947,4.2927,4.301,4.2996,4.3029,4.3024,4.3047,4.3053,4.3024,4.3059,4.3074,4.3196,4.3223,4.3235,4.3259,4.3101,4.3101,4.3101,4.3102,4.3109,4.3157,4.3116,4.3182,4.316,4.3215,4.3214,4.3191,4.3237,4.3183,4.3208,4.3149,4.3255,4.3275,4.3107,4.3106,4.3105,4.3105,4.3104,4.3224,4.3244,4.3249,4.3293,4.3329,4.3312,4.3358,4.3336,4.3316,4.3341,4.3353,4.3352,4.3345,4.3349,4.3349,4.335,4.335,4.335,4.3351,4.334,4.3345,4.3387,4.3408,4.3425,4.3444,4.3441,4.3457,4.3468,4.3448,4.3448,4.3413,4.3271,4.3234,4.3357,4.3356,4.3355,4.3355,4.3354,4.3508,4.3466,4.3531,4.3549,4.357,4.3606,4.3578,4.3612,4.3622,4.3645,4.3605,4.3504,4.3485,4.3473,4.3442,4.3611,4.3611,4.3611,4.3611,4.3603,4.3592,4.3652,4.3681,4.3706,4.3688,4.3759,4.3757,4.3748,4.3752,4.3725,4.3683,4.3671,4.3659,4.3642,4.3613,4.3822,4.3822,4.3823,4.3703,4.3693,4.3759,4.375,4.3765,4.3778,4.3844,4.3877,4.3858,4.3831,4.3754,4.3745,4.3677,4.3657,4.3625,4.36,4.3545,0,0]}]]